sat.trackr.live / text

‹ back to catalog

STARLINK-37085

NORAD 68252 · 2026-054W

PAYLOAD ACTIVE UNKNOWN

§ Identity

Operator
Country
US
Launch date
2026-03-17
Launch site
AFETR
Launch vehicle
Mass (kg)
RCS (m²)

Purposes: comms

External: N2YO · Heavens-Above · Gunter

§ Orbital elements

Epoch: 2026-05-25T03:06:47.772576Z

Period
92.94 min
Inclination
53.1583°
Eccentricity
0.0002216
Mean motion
15.49348268 rev/d
Perigee alt
417.1 km
Apogee alt
420.1 km
Semi-major
6,796.8 km
B*
8.9352e-4
RAAN
297.6603°
Arg perigee
87.4690°
Mean anomaly
272.6573°
Rev number
1,075

§ Raw data

STARLINK-370851 68252U 26054W   26145.12971959  .00049633  00000+0  89352-3 0  99952 68252  53.1583 297.6603 0002216  87.4690 272.6573 15.49348268 10753

JSON: /api/v1/satellites/68252 · /tle

For live sub-satellite position, see the globe view (requires WebGL).

§ Visibility from observer

Set your observer location to see the next 7 days of passes ≥ 10°. The values pass through the URL so the page stays shareable.

No JS? Fill the form by hand. The geolocation button needs JavaScript.